,,,PA_Meas_PMT16A,,PR_Meas_QMR101_102,,RH_Meas_QMH101,,SR_Meas_QMS101,,TA_Meas_QMH101,,GenWind,,GenWind,
date,time,status,PA,status,PR,status,RH,status,SR,status,TA,status,DirAvg,status,SpdAvg,
2011-12-19, 00:00:04,VALID,999.201,VALID,0,VALID,92.0743,VALID,0,VALID,24.7356,VALID,93,VALID,0.404297,
2011-12-19, 00:01:04,VALID,999.166,VALID,0,VALID,92.0743,VALID,0,VALID,24.6556,VALID,93,VALID,0.305859,
2011-12-19, 00:02:04,VALID,999.147,VALID,0,VALID,92.0895,VALID,0,VALID,24.6361,VALID,93,VALID,0.269141,
2011-12-19, 00:03:04,VALID,999.135,VALID,0,VALID,92.0743,VALID,0.104696,VALID,24.5971,VALID,93,VALID,0.232031,
2011-12-19, 00:04:04,VALID,999.118,VALID,0,VALID,92.0819,VALID,0.104696,VALID,24.558,VALID,93,VALID,0.192969,
2011-12-19, 00:05:04,VALID,999.124,VALID,0,VALID,92.0895,VALID,0,VALID,24.519,VALID,93,VALID,0.101172,
2011-12-19, 00:06:04,VALID,999.076,VALID,0,VALID,92.0895,VALID,0,VALID,24.4604,VALID,93,VALID,0.130078,
2011-12-19, 00:07:04,VALID,999.05,VALID,0,VALID,92.1124,VALID,0,VALID,24.4623,VALID,93,VALID,0.259375,
2011-12-19, 00:08:04,VALID,999.043,VALID,0,VALID,92.2421,VALID,0,VALID,24.4428,VALID,93,VALID,0.21875,
2011-12-19, 00:09:04,VALID,999.021,VALID,0,VALID,92.4405,VALID,0.104696,VALID,24.4409,VALID,93,VALID,0.195703,
2011-12-19, 00:10:04,VALID,999.025,VALID,0,VALID,92.6083,VALID,0,VALID,24.4409,VALID,93,VALID,0.248828,
2011-12-19, 00:11:04,VALID,998.984,VALID,0,VALID,92.6617,VALID,0,VALID,24.4623,VALID,97,VALID,0.812891,
2011-12-19, 00:12:04,VALID,998.988,VALID,0,VALID,92.7304,VALID,0,VALID,24.4623,VALID,102,VALID,0.635938,
2011-12-19, 00:13:04,VALID,998.971,VALID,0,VALID,92.8525,VALID,0,VALID,24.4818,VALID,99,VALID,0.829687,
2011-12-19, 00:14:04,VALID,999.012,VALID,0,VALID,92.8143,VALID,0,VALID,24.4818,VALID,71,VALID,1.16641,
2011-12-19, 00:15:04,VALID,998.979,VALID,0,VALID,92.7838,VALID,0,VALID,24.4623,VALID,71,VALID,1.35859,
2011-12-19, 00:16:04,VALID,998.96,VALID,0,VALID,92.7533,VALID,0,VALID,24.4428,VALID,71,VALID,1.11133,
2011-12-19, 00:17:04,VALID,998.976,VALID,0,VALID,92.7304,VALID,0,VALID,24.4019,VALID,70,VALID,0.907031,
2011-12-19, 00:18:04,VALID,998.96,VALID,0,VALID,92.6999,VALID,0,VALID,24.3842,VALID,65,VALID,0.804688,
2011-12-19, 00:19:04,VALID,998.978,VALID,0,VALID,92.677,VALID,0,VALID,24.3647,VALID,65,VALID,0.630469,
2011-12-19, 00:20:04,VALID,998.965,VALID,0,VALID,92.7075,VALID,0,VALID,24.3257,VALID,65,VALID,0.491016,
2011-12-19, 00:21:04,VALID,998.962,VALID,0,VALID,92.7457,VALID,0,VALID,24.3257,VALID,65,VALID,0.2625,
2011-12-19, 00:22:04,VALID,998.937,VALID,0,VALID,92.7991,VALID,0,VALID,24.3257,VALID,65,VALID,0.0914062,
2011-12-19, 00:23:04,VALID,998.936,VALID,0,VALID,92.8143,VALID,0,VALID,24.2671,VALID,65,VALID,0.046875,
2011-12-19, 00:24:04,VALID,998.951,VALID,0,VALID,92.8372,VALID,0,VALID,24.2671,VALID,65,VALID,0,
2011-12-19, 00:25:04,VALID,998.958,VALID,0,VALID,92.9059,VALID,0,VALID,24.2281,VALID,65,VALID,0,
2011-12-19, 00:26:04,VALID,998.961,VALID,0,VALID,92.9898,VALID,0,VALID,24.2263,VALID,65,VALID,0,
2011-12-19, 00:27:04,VALID,998.943,VALID,0,VALID,93.0585,VALID,0,VALID,24.2281,VALID,63,VALID,0.705469,
2011-12-19, 00:28:04,VALID,998.936,VALID,0,VALID,93.1119,VALID,0,VALID,24.2281,VALID,48,VALID,1.02578,
2011-12-19, 00:29:04,VALID,998.91,VALID,0,VALID,93.2034,VALID,0,VALID,24.2281,VALID,48,VALID,0.996484,
2011-12-19, 00:30:04,VALID,998.894,VALID,0,VALID,93.2568,VALID,0,VALID,24.2281,VALID,48,VALID,0.710938,
2011-12-19, 00:31:04,VALID,998.927,VALID,0,VALID,93.3026,VALID,0,VALID,24.2281,VALID,48,VALID,0.608203,
2011-12-19, 00:32:04,VALID,998.866,VALID,0,VALID,93.3255,VALID,0,VALID,24.2263,VALID,48,VALID,0.469922,
2011-12-19, 00:33:04,VALID,998.841,VALID,0,VALID,93.3026,VALID,0,VALID,24.2067,VALID,48,VALID,0.519141,
2011-12-19, 00:34:04,VALID,998.774,VALID,0,VALID,93.3103,VALID,0,VALID,24.2281,VALID,48,VALID,0.626172,
2011-12-19, 00:35:04,VALID,998.796,VALID,0,VALID,93.3179,VALID,0,VALID,24.2281,VALID,48,VALID,0.525391,
2011-12-19, 00:36:04,VALID,998.721,VALID,0,VALID,93.3179,VALID,0,VALID,24.2086,VALID,48,VALID,0.648047,
2011-12-19, 00:37:04,VALID,998.711,VALID,0,VALID,93.356,VALID,0,VALID,24.2281,VALID,48,VALID,0.48125,
2011-12-19, 00:38:04,VALID,998.671,VALID,0,VALID,93.356,VALID,0,VALID,24.2476,VALID,48,VALID,0.40625,
2011-12-19, 00:39:04,VALID,998.645,VALID,0,VALID,93.3484,VALID,0,VALID,24.2281,VALID,48,VALID,0.510547,
2011-12-19, 00:40:04,VALID,998.595,VALID,0,VALID,93.3331,VALID,0,VALID,24.2281,VALID,48,VALID,0.635156,
2011-12-19, 00:41:04,VALID,998.565,VALID,0,VALID,93.3255,VALID,0,VALID,24.2281,VALID,48,VALID,0.591797,
2011-12-19, 00:42:04,VALID,998.522,VALID,0,VALID,93.3331,VALID,0,VALID,24.2281,VALID,48,VALID,0.578125,
2011-12-19, 00:43:04,VALID,998.509,VALID,0,VALID,93.3103,VALID,0,VALID,24.2086,VALID,48,VALID,0.574609,
2011-12-19, 00:44:04,VALID,998.458,VALID,0,VALID,93.3103,VALID,0,VALID,24.1891,VALID,48,VALID,0.667188,
2011-12-19, 00:45:04,VALID,998.436,VALID,0,VALID,93.3408,VALID,0,VALID,24.2281,VALID,48,VALID,0.689062,
2011-12-19, 00:46:04,VALID,998.432,VALID,0,VALID,93.3789,VALID,0,VALID,24.2281,VALID,48,VALID,0.423438,
2011-12-19, 00:47:04,VALID,998.409,VALID,0,VALID,93.3866,VALID,0,VALID,24.2281,VALID,48,VALID,0.228906,
2011-12-19, 00:48:04,VALID,998.41,VALID,0,VALID,93.3789,VALID,0,VALID,24.2281,VALID,48,VALID,0.046875,
2011-12-19, 00:49:04,VALID,998.419,VALID,0,VALID,93.3866,VALID,0,VALID,24.2067,VALID,48,VALID,0.0839844,
2011-12-19, 00:50:04,VALID,998.434,VALID,0,VALID,93.4171,VALID,0,VALID,24.2263,VALID,48,VALID,0,
2011-12-19, 00:51:04,VALID,998.459,VALID,0,VALID,93.4171,VALID,0,VALID,24.2458,VALID,48,VALID,0,
2011-12-19, 00:52:04,VALID,998.453,VALID,0,VALID,93.4323,VALID,0,VALID,24.2458,VALID,48,VALID,0,
2011-12-19, 00:53:04,VALID,998.468,VALID,0,VALID,93.4171,VALID,0,VALID,24.2476,VALID,48,VALID,0,
2011-12-19, 00:54:04,VALID,998.427,VALID,0,VALID,93.4018,VALID,0,VALID,24.2281,VALID,48,VALID,0,
2011-12-19, 00:55:04,VALID,998.438,VALID,0,VALID,93.3637,VALID,0,VALID,24.2086,VALID,48,VALID,0,
2011-12-19, 00:56:04,VALID,998.461,VALID,0,VALID,93.356,VALID,0,VALID,24.2086,VALID,48,VALID,0,
2011-12-19, 00:57:04,VALID,998.434,VALID,0,VALID,93.3637,VALID,0,VALID,24.1677,VALID,48,VALID,0,
2011-12-19, 00:58:04,VALID,998.46,VALID,0,VALID,93.3713,VALID,0,VALID,24.1891,VALID,48,VALID,0,
2011-12-19, 00:59:04,VALID,998.458,VALID,0,VALID,93.3637,VALID,0,VALID,24.15,VALID,48,VALID,0,
2011-12-19, 01:00:04,VALID,998.429,VALID,0,VALID,93.3866,VALID,0,VALID,24.15,VALID,48,VALID,0,
2011-12-19, 01:01:04,VALID,998.421,VALID,0,VALID,93.4094,VALID,0,VALID,24.1519,VALID,48,VALID,0,
2011-12-19, 01:02:04,VALID,998.408,VALID,0,VALID,93.4781,VALID,0,VALID,24.1696,VALID,48,VALID,0,
2011-12-19, 01:03:04,VALID,998.365,VALID,0,VALID,93.5315,VALID,0,VALID,24.1891,VALID,48,VALID,0,
2011-12-19, 01:04:04,VALID,998.341,VALID,0,VALID,93.5391,VALID,0,VALID,24.1677,VALID,48,VALID,0,
2011-12-19, 01:05:04,VALID,998.294,VALID,0,VALID,93.562,VALID,0,VALID,24.1872,VALID,48,VALID,0,
2011-12-19, 01:06:04,VALID,998.305,VALID,0,VALID,93.5697,VALID,0,VALID,24.1677,VALID,48,VALID,0,
2011-12-19, 01:07:04,VALID,998.298,VALID,0,VALID,93.5544,VALID,0,VALID,24.1891,VALID,48,VALID,0,
2011-12-19, 01:08:04,VALID,998.274,VALID,0,VALID,93.5391,VALID,0,VALID,24.1891,VALID,48,VALID,0,
2011-12-19, 01:09:04,VALID,998.234,VALID,0,VALID,93.5391,VALID,0,VALID,24.1696,VALID,48,VALID,0,
2011-12-19, 01:10:04,VALID,998.233,VALID,0,VALID,93.5391,VALID,0,VALID,24.1696,VALID,48,VALID,0,
2011-12-19, 01:11:04,VALID,998.227,VALID,0,VALID,93.5315,VALID,0,VALID,24.1482,VALID,48,VALID,0,
2011-12-19, 01:12:04,VALID,998.179,VALID,0,VALID,93.5239,VALID,0,VALID,24.1482,VALID,48,VALID,0,
2011-12-19, 01:13:04,VALID,998.127,VALID,0,VALID,93.5086,VALID,0,VALID,24.15,VALID,48,VALID,0,
2011-12-19, 01:14:04,VALID,998.146,VALID,0,VALID,93.5315,VALID,0,VALID,24.15,VALID,48,VALID,0,
2011-12-19, 01:15:04,VALID,998.119,VALID,0,VALID,93.562,VALID,0.104696,VALID,24.1482,VALID,48,VALID,0,
2011-12-19, 01:16:04,VALID,998.083,VALID,0,VALID,93.5926,VALID,0,VALID,24.15,VALID,48,VALID,0,
2011-12-19, 01:17:04,VALID,998.046,VALID,0,VALID,93.5849,VALID,0,VALID,24.1287,VALID,48,VALID,0,
2011-12-19, 01:18:04,VALID,998.029,VALID,0,VALID,93.5773,VALID,0,VALID,24.1677,VALID,48,VALID,0,
2011-12-19, 01:19:04,VALID,998.029,VALID,0,VALID,93.6154,VALID,0,VALID,24.2086,VALID,48,VALID,0,
2011-12-19, 01:20:04,VALID,998.028,VALID,0,VALID,93.646,VALID,0,VALID,24.2263,VALID,48,VALID,0,
2011-12-19, 01:21:04,VALID,998.003,VALID,0,VALID,93.646,VALID,0,VALID,24.2476,VALID,48,VALID,0,
2011-12-19, 01:22:04,VALID,997.995,VALID,0,VALID,93.6765,VALID,0,VALID,24.2458,VALID,48,VALID,0.348047,
2011-12-19, 01:23:04,VALID,997.983,VALID,0,VALID,93.6917,VALID,0,VALID,24.2653,VALID,154,VALID,0.724609,
2011-12-19, 01:24:04,VALID,997.988,VALID,0,VALID,93.6841,VALID,0,VALID,24.2848,VALID,154,VALID,0.675781,
2011-12-19, 01:25:04,VALID,997.979,VALID,0,VALID,93.6917,VALID,0,VALID,24.3452,VALID,154,VALID,0.530469,
2011-12-19, 01:26:04,VALID,997.945,VALID,0,VALID,93.6841,VALID,0,VALID,24.3842,VALID,154,VALID,0.347266,
2011-12-19, 01:27:04,VALID,997.984,VALID,0,VALID,93.6841,VALID,0,VALID,24.3629,VALID,154,VALID,0.4125,
2011-12-19, 01:28:04,VALID,997.962,VALID,0,VALID,93.646,VALID,0,VALID,24.4037,VALID,154,VALID,0.275781,
2011-12-19, 01:29:04,VALID,997.957,VALID,0,VALID,93.6154,VALID,0,VALID,24.4037,VALID,154,VALID,0.565625,
2011-12-19, 01:30:04,VALID,998.009,VALID,0,VALID,93.6002,VALID,0,VALID,24.4019,VALID,150,VALID,0.416797,
2011-12-19, 01:31:04,VALID,997.979,VALID,0,VALID,93.5697,VALID,0,VALID,24.4409,VALID,150,VALID,0.31875,
2011-12-19, 01:32:04,VALID,997.988,VALID,0,VALID,93.5315,VALID,0,VALID,24.4623,VALID,150,VALID,0.485547,
2011-12-19, 01:33:04,VALID,997.948,VALID,0,VALID,93.4857,VALID,0,VALID,24.4623,VALID,150,VALID,0.323828,
2011-12-19, 01:34:04,VALID,997.916,VALID,0,VALID,93.501,VALID,0,VALID,24.4623,VALID,150,VALID,0.346875,
2011-12-19, 01:35:04,VALID,997.949,VALID,0,VALID,93.44,VALID,0,VALID,24.4818,VALID,150,VALID,0.324609,
2011-12-19, 01:36:04,VALID,997.911,VALID,0,VALID,93.3713,VALID,0,VALID,24.4409,VALID,150,VALID,0.376953,
2011-12-19, 01:37:04,VALID,997.883,VALID,0,VALID,93.3713,VALID,0,VALID,24.4409,VALID,150,VALID,0.553125,
2011-12-19, 01:38:04,VALID,997.898,VALID,0,VALID,93.3789,VALID,0,VALID,24.4409,VALID,150,VALID,0.546484,
2011-12-19, 01:39:04,VALID,997.858,VALID,0,VALID,93.3866,VALID,0,VALID,24.4409,VALID,150,VALID,0.591406,
2011-12-19, 01:40:04,VALID,997.85,VALID,0,VALID,93.3331,VALID,0,VALID,24.4446,VALID,150,VALID,0.599219,
2011-12-19, 01:41:04,VALID,997.86,VALID,0,VALID,93.295,VALID,0,VALID,24.4251,VALID,150,VALID,0.596875,
2011-12-19, 01:42:04,VALID,997.818,VALID,0,VALID,93.2721,VALID,0,VALID,24.4056,VALID,150,VALID,0.507813,
2011-12-19, 01:43:04,VALID,997.83,VALID,0,VALID,93.2797,VALID,0,VALID,24.3842,VALID,120,VALID,0.68125,
2011-12-19, 01:44:04,VALID,997.806,VALID,0,VALID,93.3026,VALID,0,VALID,24.3647,VALID,103,VALID,0.63125,
2011-12-19, 01:45:04,VALID,997.763,VALID,0,VALID,93.2874,VALID,0,VALID,24.3452,VALID,103,VALID,0.633594,
2011-12-19, 01:46:04,VALID,997.769,VALID,0,VALID,93.2874,VALID,0,VALID,24.3452,VALID,103,VALID,0.524219,
2011-12-19, 01:47:04,VALID,997.744,VALID,0,VALID,93.2797,VALID,0,VALID,24.347,VALID,103,VALID,0.584375,
2011-12-19, 01:48:04,VALID,997.716,VALID,0,VALID,93.2187,VALID,0,VALID,24.2866,VALID,103,VALID,0.513281,
2011-12-19, 01:49:04,VALID,997.708,VALID,0,VALID,93.1882,VALID,0,VALID,24.269,VALID,103,VALID,0.458594,
2011-12-19, 01:50:04,VALID,997.678,VALID,0,VALID,93.2034,VALID,0,VALID,24.269,VALID,103,VALID,0.591016,
2011-12-19, 01:51:04,VALID,997.696,VALID,0,VALID,93.2263,VALID,0,VALID,24.2086,VALID,103,VALID,0.503906,
2011-12-19, 01:52:04,VALID,997.688,VALID,0,VALID,93.1958,VALID,0,VALID,24.1909,VALID,103,VALID,0.596094,
2011-12-19, 01:53:04,VALID,997.684,VALID,0,VALID,93.1882,VALID,0,VALID,24.1324,VALID,52,VALID,0.830469,
2011-12-19, 01:54:04,VALID,997.704,VALID,0,VALID,93.2034,VALID,0,VALID,24.1128,VALID,45,VALID,0.998047,
2011-12-19, 01:55:04,VALID,997.675,VALID,0,VALID,93.2111,VALID,0.104696,VALID,24.0506,VALID,45,VALID,0.979688,
2011-12-19, 01:56:04,VALID,997.688,VALID,0,VALID,93.2492,VALID,0,VALID,23.9921,VALID,45,VALID,0.940234,
2011-12-19, 01:57:04,VALID,997.676,VALID,0,VALID,93.3103,VALID,0,VALID,23.9939,VALID,45,VALID,0.892969,
2011-12-19, 01:58:04,VALID,997.666,VALID,0,VALID,93.3866,VALID,0,VALID,23.9726,VALID,45,VALID,0.902344,
2011-12-19, 01:59:04,VALID,997.638,VALID,0,VALID,93.4705,VALID,0,VALID,23.9531,VALID,45,VALID,0.898438,
2011-12-19, 02:00:04,VALID,997.634,VALID,0,VALID,93.5086,VALID,0,VALID,23.9531,VALID,45,VALID,0.874219,
2011-12-19, 02:01:04,VALID,997.612,VALID,0,VALID,93.5391,VALID,0,VALID,23.9531,VALID,45,VALID,0.885547,
2011-12-19, 02:02:04,VALID,997.631,VALID,0,VALID,93.562,VALID,0,VALID,23.9549,VALID,45,VALID,0.836719,
2011-12-19, 02:03:04,VALID,997.611,VALID,0,VALID,93.562,VALID,0,VALID,23.9354,VALID,45,VALID,0.774219,
2011-12-19, 02:04:04,VALID,997.639,VALID,0,VALID,93.6078,VALID,0,VALID,23.9354,VALID,45,VALID,0.790625,
2011-12-19, 02:05:04,VALID,997.657,VALID,0,VALID,93.6307,VALID,0,VALID,23.914,VALID,45,VALID,0.725391,
2011-12-19, 02:06:04,VALID,997.654,VALID,0,VALID,93.6688,VALID,0,VALID,23.914,VALID,45,VALID,0.682813,
2011-12-19, 02:07:04,VALID,997.633,VALID,0,VALID,93.6994,VALID,0,VALID,23.914,VALID,45,VALID,0.757422,
2011-12-19, 02:08:04,VALID,997.669,VALID,0,VALID,93.6765,VALID,0.104696,VALID,23.8945,VALID,45,VALID,0.632422,
2011-12-19, 02:09:04,VALID,997.665,VALID,0,VALID,93.6994,VALID,0,VALID,23.8945,VALID,45,VALID,0.800781,
2011-12-19, 02:10:04,VALID,997.629,VALID,0,VALID,93.7146,VALID,0,VALID,23.8768,VALID,45,VALID,0.625,
2011-12-19, 02:11:04,VALID,997.633,VALID,0,VALID,93.7146,VALID,0,VALID,23.8768,VALID,45,VALID,0.587891,
2011-12-19, 02:12:04,VALID,997.612,VALID,0,VALID,93.707,VALID,0,VALID,23.8768,VALID,45,VALID,0.323438,
2011-12-19, 02:13:04,VALID,997.628,VALID,0,VALID,93.7146,VALID,0,VALID,23.8573,VALID,45,VALID,0.304688,
2011-12-19, 02:14:04,VALID,997.581,VALID,0,VALID,93.6841,VALID,0,VALID,23.8165,VALID,45,VALID,0.245312,
2011-12-19, 02:15:04,VALID,997.589,VALID,0,VALID,93.6917,VALID,0,VALID,23.8183,VALID,45,VALID,0.00546875,
2011-12-19, 02:16:04,VALID,997.564,VALID,0,VALID,93.6765,VALID,0,VALID,23.7988,VALID,45,VALID,0.00078125,
2011-12-19, 02:17:04,VALID,997.546,VALID,0,VALID,93.646,VALID,0,VALID,23.7597,VALID,45,VALID,0.194531,
2011-12-19, 02:18:04,VALID,997.551,VALID,0,VALID,93.6688,VALID,0,VALID,23.7597,VALID,45,VALID,0.280469,
2011-12-19, 02:19:04,VALID,997.534,VALID,0,VALID,93.7375,VALID,0,VALID,23.7597,VALID,45,VALID,0.435156,
2011-12-19, 02:20:04,VALID,997.512,VALID,0,VALID,93.7757,VALID,0,VALID,23.7793,VALID,45,VALID,0.562891,
2011-12-19, 02:21:04,VALID,997.483,VALID,0,VALID,93.7757,VALID,0,VALID,23.7597,VALID,45,VALID,0.421094,
2011-12-19, 02:22:04,VALID,997.441,VALID,0,VALID,93.8062,VALID,0,VALID,23.7402,VALID,45,VALID,0.232422,
2011-12-19, 02:23:04,VALID,997.438,VALID,0,VALID,93.8138,VALID,0,VALID,23.7402,VALID,45,VALID,0.226172,
2011-12-19, 02:24:04,VALID,997.43,VALID,0,VALID,93.8291,VALID,0,VALID,23.7597,VALID,45,VALID,0.198047,
2011-12-19, 02:25:04,VALID,997.426,VALID,0,VALID,93.8291,VALID,0,VALID,23.7384,VALID,45,VALID,0,
2011-12-19, 02:26:04,VALID,997.392,VALID,0,VALID,93.852,VALID,0,VALID,23.7384,VALID,45,VALID,0,
2011-12-19, 02:27:04,VALID,997.357,VALID,0,VALID,93.8596,VALID,0,VALID,23.7189,VALID,45,VALID,0,
2011-12-19, 02:28:04,VALID,997.336,VALID,0,VALID,93.8672,VALID,0,VALID,23.7189,VALID,45,VALID,0,
2011-12-19, 02:29:04,VALID,997.308,VALID,0,VALID,93.8825,VALID,0,VALID,23.7189,VALID,45,VALID,0,
2011-12-19, 02:30:04,VALID,997.306,VALID,0,VALID,93.8977,VALID,0,VALID,23.7384,VALID,45,VALID,0,
2011-12-19, 02:31:04,VALID,997.324,VALID,0,VALID,93.9206,VALID,0,VALID,23.7775,VALID,56,VALID,0,
2011-12-19, 02:32:04,VALID,997.347,VALID,0,VALID,93.9206,VALID,0.104696,VALID,23.8378,VALID,75,VALID,0.478516,
2011-12-19, 02:33:04,VALID,997.344,VALID,0,VALID,93.9588,VALID,0,VALID,23.8555,VALID,78,VALID,0.233203,
2011-12-19, 02:34:04,VALID,997.323,VALID,0,VALID,93.9893,VALID,0.104696,VALID,23.875,VALID,148,VALID,0.435937,
2011-12-19, 02:35:04,VALID,997.284,VALID,0,VALID,93.9817,VALID,0,VALID,23.875,VALID,148,VALID,0.267188,
2011-12-19, 02:36:04,VALID,997.285,VALID,0,VALID,93.9817,VALID,0,VALID,23.875,VALID,148,VALID,0.529688,
2011-12-19, 02:37:04,VALID,997.298,VALID,0,VALID,94.0274,VALID,0.104696,VALID,23.8732,VALID,148,VALID,0.375391,
2011-12-19, 02:38:04,VALID,997.29,VALID,0,VALID,94.0045,VALID,0,VALID,23.875,VALID,148,VALID,0.344141,
2011-12-19, 02:39:04,VALID,997.309,VALID,0,VALID,94.0122,VALID,0,VALID,23.8945,VALID,148,VALID,0.632422,
2011-12-19, 02:40:04,VALID,997.326,VALID,0,VALID,93.9969,VALID,0.104696,VALID,23.9354,VALID,148,VALID,0.534375,
2011-12-19, 02:41:04,VALID,997.295,VALID,0,VALID,93.9817,VALID,0,VALID,23.9531,VALID,148,VALID,0.63125,
2011-12-19, 02:42:04,VALID,997.285,VALID,0,VALID,93.9893,VALID,0.104696,VALID,23.9726,VALID,148,VALID,0.535156,
2011-12-19, 02:43:04,VALID,997.253,VALID,0,VALID,93.9664,VALID,0,VALID,23.9921,VALID,148,VALID,0.610156,
2011-12-19, 02:44:04,VALID,997.226,VALID,0,VALID,93.9359,VALID,0,VALID,23.9939,VALID,148,VALID,0.616406,
2011-12-19, 02:45:04,VALID,997.196,VALID,0,VALID,93.913,VALID,0,VALID,24.0116,VALID,140,VALID,0.741016,
2011-12-19, 02:46:04,VALID,997.158,VALID,0,VALID,93.8825,VALID,0.104696,VALID,24.0116,VALID,140,VALID,0.587891,
2011-12-19, 02:47:04,VALID,997.154,VALID,0,VALID,93.8443,VALID,0,VALID,24.0116,VALID,140,VALID,0.476563,
2011-12-19, 02:48:04,VALID,997.136,VALID,0,VALID,93.8214,VALID,0.104696,VALID,24.0506,VALID,140,VALID,0.486328,
2011-12-19, 02:49:04,VALID,997.135,VALID,0,VALID,93.8443,VALID,0,VALID,24.0701,VALID,140,VALID,0.538672,
2011-12-19, 02:50:04,VALID,997.149,VALID,0,VALID,93.7909,VALID,0.104696,VALID,24.0701,VALID,140,VALID,0.583203,
2011-12-19, 02:51:04,VALID,997.113,VALID,0,VALID,93.7833,VALID,0.104696,VALID,24.0701,VALID,140,VALID,0.510156,
2011-12-19, 02:52:04,VALID,997.102,VALID,0,VALID,93.707,VALID,0.104696,VALID,24.0506,VALID,140,VALID,0.345313,
2011-12-19, 02:53:04,VALID,997.083,VALID,0,VALID,93.646,VALID,0.104696,VALID,24.0311,VALID,140,VALID,0.124219,
2011-12-19, 02:54:04,VALID,997.104,VALID,0,VALID,93.5773,VALID,0,VALID,23.9726,VALID,140,VALID,0,
2011-12-19, 02:55:04,VALID,997.102,VALID,0,VALID,93.5391,VALID,0.104696,VALID,23.9744,VALID,140,VALID,0.15,
2011-12-19, 02:56:04,VALID,997.083,VALID,0,VALID,93.5163,VALID,0,VALID,23.9336,VALID,140,VALID,0,
2011-12-19, 02:57:04,VALID,997.108,VALID,0,VALID,93.501,VALID,0,VALID,23.9336,VALID,140,VALID,0,
2011-12-19, 02:58:04,VALID,997.096,VALID,0,VALID,93.4934,VALID,0,VALID,23.9159,VALID,140,VALID,0,
2011-12-19, 02:59:04,VALID,997.116,VALID,0,VALID,93.4781,VALID,0,VALID,23.875,VALID,140,VALID,0,
2011-12-19, 03:00:04,VALID,997.093,VALID,0,VALID,93.4781,VALID,0,VALID,23.8555,VALID,140,VALID,0,
2011-12-19, 03:01:04,VALID,997.106,VALID,0,VALID,93.4857,VALID,0,VALID,23.8555,VALID,140,VALID,0,
2011-12-19, 03:02:04,VALID,997.117,VALID,0,VALID,93.5086,VALID,0,VALID,23.836,VALID,140,VALID,0,
2011-12-19, 03:03:04,VALID,997.078,VALID,0,VALID,93.5239,VALID,0,VALID,23.8165,VALID,140,VALID,0,
2011-12-19, 03:04:04,VALID,997.104,VALID,0,VALID,93.5849,VALID,0,VALID,23.8165,VALID,140,VALID,0.0046875,
2011-12-19, 03:05:04,VALID,997.096,VALID,0,VALID,93.6383,VALID,0,VALID,23.8165,VALID,140,VALID,0.0246094,
2011-12-19, 03:06:04,VALID,997.098,VALID,0,VALID,93.6841,VALID,0,VALID,23.836,VALID,95,VALID,0.572656,
2011-12-19, 03:07:04,VALID,997.103,VALID,0,VALID,93.7375,VALID,0,VALID,23.836,VALID,54,VALID,0.568359,
2011-12-19, 03:08:04,VALID,997.084,VALID,0,VALID,93.7757,VALID,0.104696,VALID,23.836,VALID,54,VALID,0.407813,
2011-12-19, 03:09:04,VALID,997.085,VALID,0,VALID,93.7757,VALID,0,VALID,23.836,VALID,54,VALID,0.240234,
2011-12-19, 03:10:04,VALID,997.094,VALID,0,VALID,93.8062,VALID,0,VALID,23.8378,VALID,54,VALID,0.00117188,
2011-12-19, 03:11:04,VALID,997.064,VALID,0,VALID,93.8062,VALID,0,VALID,23.8183,VALID,54,VALID,0,
2011-12-19, 03:12:04,VALID,997.078,VALID,0,VALID,93.7985,VALID,0,VALID,23.7988,VALID,54,VALID,0,
2011-12-19, 03:13:04,VALID,997.056,VALID,0,VALID,93.8214,VALID,0,VALID,23.7988,VALID,54,VALID,0,
2011-12-19, 03:14:04,VALID,997.073,VALID,0,VALID,93.8214,VALID,0,VALID,23.7988,VALID,54,VALID,0,
2011-12-19, 03:15:04,VALID,997.058,VALID,0,VALID,93.8291,VALID,0,VALID,23.8201,VALID,54,VALID,0,
2011-12-19, 03:16:04,VALID,997.079,VALID,0,VALID,93.852,VALID,0,VALID,23.7793,VALID,54,VALID,0.211719,
2011-12-19, 03:17:04,VALID,997.096,VALID,0,VALID,93.8977,VALID,0,VALID,23.7793,VALID,54,VALID,0.378125,
2011-12-19, 03:18:04,VALID,997.133,VALID,0,VALID,93.8901,VALID,0,VALID,23.7988,VALID,54,VALID,0.476172,
2011-12-19, 03:19:04,VALID,997.122,VALID,0,VALID,93.913,VALID,0,VALID,23.8183,VALID,54,VALID,0.646484,
2011-12-19, 03:20:04,VALID,997.089,VALID,0,VALID,93.9359,VALID,0,VALID,23.8183,VALID,54,VALID,0.860156,
2011-12-19, 03:21:04,VALID,997.1,VALID,0,VALID,93.9435,VALID,0,VALID,23.8183,VALID,54,VALID,0.818359,
2011-12-19, 03:22:05,VALID,997.08,VALID,0,VALID,93.8977,VALID,0,VALID,23.7793,VALID,55,VALID,0.889063,
2011-12-19, 03:23:05,VALID,997.079,VALID,0,VALID,93.8672,VALID,0,VALID,23.7811,VALID,55,VALID,0.68125,
2011-12-19, 03:24:05,VALID,997.089,VALID,0,VALID,93.852,VALID,0,VALID,23.7616,VALID,55,VALID,0.842578,
2011-12-19, 03:25:05,VALID,997.069,VALID,0,VALID,93.8214,VALID,0,VALID,23.7189,VALID,55,VALID,0.594141,
2011-12-19, 03:26:05,VALID,997.041,VALID,0,VALID,93.8214,VALID,0,VALID,23.7402,VALID,55,VALID,0.457812,
2011-12-19, 03:27:05,VALID,997.028,VALID,0,VALID,93.8214,VALID,0,VALID,23.7207,VALID,55,VALID,0,
2011-12-19, 03:28:05,VALID,997.039,VALID,0,VALID,93.7985,VALID,0,VALID,23.6817,VALID,55,VALID,0,
2011-12-19, 03:29:05,VALID,997.038,VALID,0,VALID,93.7909,VALID,0,VALID,23.6409,VALID,55,VALID,0,
2011-12-19, 03:30:05,VALID,997.015,VALID,0,VALID,93.7451,VALID,0.104696,VALID,23.6214,VALID,55,VALID,0,
2011-12-19, 03:31:05,VALID,997.031,VALID,0,VALID,93.7375,VALID,0,VALID,23.6019,VALID,55,VALID,0,
2011-12-19, 03:32:05,VALID,997.023,VALID,0,VALID,93.7223,VALID,0,VALID,23.5823,VALID,55,VALID,0,
2011-12-19, 03:33:05,VALID,997.049,VALID,0,VALID,93.7223,VALID,0,VALID,23.5628,VALID,55,VALID,0,
2011-12-19, 03:34:05,VALID,997.02,VALID,0,VALID,93.7451,VALID,0,VALID,23.6036,VALID,55,VALID,0,
2011-12-19, 03:35:05,VALID,997.059,VALID,0,VALID,93.8367,VALID,0.104696,VALID,23.5823,VALID,55,VALID,0,
2011-12-19, 03:36:05,VALID,997.082,VALID,0,VALID,93.852,VALID,0,VALID,23.6214,VALID,55,VALID,0,
2011-12-19, 03:37:05,VALID,997.132,VALID,0,VALID,93.8901,VALID,0,VALID,23.6019,VALID,55,VALID,0,
2011-12-19, 03:38:05,VALID,997.117,VALID,0,VALID,93.8901,VALID,0,VALID,23.6214,VALID,55,VALID,0.326562,
2011-12-19, 03:39:05,VALID,997.132,VALID,0,VALID,93.913,VALID,0,VALID,23.6232,VALID,55,VALID,0,
2011-12-19, 03:40:05,VALID,997.138,VALID,0,VALID,93.8901,VALID,0,VALID,23.6054,VALID,55,VALID,0,
2011-12-19, 03:41:05,VALID,997.108,VALID,0,VALID,93.8977,VALID,0,VALID,23.5646,VALID,55,VALID,0,
2011-12-19, 03:42:05,VALID,997.114,VALID,0,VALID,93.8825,VALID,0,VALID,23.5664,VALID,55,VALID,0,
2011-12-19, 03:43:05,VALID,997.097,VALID,0,VALID,93.8748,VALID,0,VALID,23.5061,VALID,55,VALID,0,
2011-12-19, 03:44:05,VALID,997.096,VALID,0,VALID,93.8672,VALID,0,VALID,23.4866,VALID,55,VALID,0,
2011-12-19, 03:45:05,VALID,997.076,VALID,0,VALID,93.8901,VALID,0,VALID,23.4475,VALID,55,VALID,0,
2011-12-19, 03:46:05,VALID,997.068,VALID,0,VALID,93.8825,VALID,0,VALID,23.4085,VALID,55,VALID,0,
2011-12-19, 03:47:05,VALID,997.057,VALID,0,VALID,93.9435,VALID,0,VALID,23.4493,VALID,55,VALID,0,
2011-12-19, 03:48:05,VALID,997.05,VALID,0,VALID,93.9588,VALID,0,VALID,23.428,VALID,55,VALID,0,
2011-12-19, 03:49:05,VALID,997.076,VALID,0,VALID,93.9969,VALID,0,VALID,23.428,VALID,55,VALID,0,